Location: Unspecified
(0.0000°N, 0.0000°E)
Time: 07:06:31
(UTC+00:00)

Transit 2A - All Passes

Search period start: 27 April 2015 00:00
Search period end: 07 May 2015 00:00
Orbit: 592 x 969 km, 66.7° (Epoch: 26 April)

Date Brightness Start Highest point End Pass type
(mag) Time Alt. Az. Time Alt. Az. Time Alt. Az.
27 Apr - 04:34:08 10° S 04:39:29 56° ESE 04:45:24 10° NNE visible
27 Apr - 06:21:05 10° W 06:23:01 11° WNW 06:24:26 10° NW daylight
27 Apr - 17:10:43 10° NW 17:15:32 44° WSW 17:19:54 10° S daylight
28 Apr - 04:00:51 10° S 04:05:45 34° ESE 04:11:09 10° NE visible
28 Apr - 05:44:58 10° WSW 05:49:02 19° WNW 05:53:01 10° NNW daylight
28 Apr - 16:36:43 10° NNW 16:41:48 80° WSW 16:46:24 10° SSE daylight
29 Apr - 03:28:01 10° SSE 03:31:59 21° ESE 03:36:28 10° ENE visible
29 Apr - 05:10:10 10° SW 05:15:07 30° WNW 05:20:18 10° N visible
29 Apr - 16:03:03 10° N 16:08:03 58° ENE 16:12:36 10° SSE daylight
30 Apr - 02:56:06 10° SE 02:58:11 12° ESE 03:00:48 10° E visible
30 Apr - 04:35:52 10° SW 04:41:16 48° WNW 04:47:07 10° N visible
30 Apr - 15:29:44 10° N 15:34:14 32° ENE 15:38:26 10° SE daylight
30 Apr - 17:15:17 10° W 17:17:14 12° WSW 17:18:46 10° SW daylight
01 May - 04:01:54 10° SSW 04:07:28 79° WNW 04:13:35 10° NNE visible
01 May - 14:56:54 10° NNE 15:00:20 19° ENE 15:03:47 10° ESE daylight
01 May - 16:39:41 10° WNW 16:43:27 21° WSW 16:46:50 10° SSW daylight
02 May - 03:28:14 10° S 03:33:43 65° ESE 03:39:46 10° NNE visible
02 May - 14:25:24 10° NE 14:26:23 11° ENE 14:27:45 10° E daylight
02 May - 16:05:07 10° NW 16:09:42 37° WSW 16:13:53 10° S daylight
03 May - 02:54:50 10° S 02:59:59 40° ESE 03:05:38 10° NE visible
03 May - 04:39:36 10° WSW 04:43:20 17° WNW 04:46:51 10° NNW visible
03 May - 15:31:00 10° NNW 15:35:59 67° WSW 15:40:30 10° SSE daylight
04 May - 02:21:50 10° SSE 02:26:13 25° ESE 02:31:07 10° NE visible
04 May - 04:04:35 10° SW 04:09:23 27° WNW 04:14:20 10° NNW visible
04 May - 14:57:14 10° NNW 15:02:14 69° ENE 15:06:47 10° SSE daylight
05 May - 01:49:28 10° SE 01:52:25 15° ESE 01:55:53 10° ENE visible
05 May - 03:30:09 10° SW 03:35:31 42° WNW 03:41:16 10° N visible
05 May - 14:23:48 10° N 14:28:26 38° ENE 14:32:43 10° SE daylight
06 May - 02:56:05 10° SSW 03:01:42 69° WNW 03:07:50 10° NNE visible
06 May - 13:50:48 10° NNE 13:54:34 22° ENE 13:58:14 10° ESE daylight
06 May - 15:34:18 10° WNW 15:37:37 18° WSW 15:40:34 10° SSW daylight
